QPF
0.00 0.01 0.02 0.02 0.02 0.02 0.01 0.02 0.03 0.04 0.05 0.06 0.07 0.06 0.04 0.04 0.04 0.04 0.04 0.04 0.05 0.05 0.04 0.03 0.03 0.03 0.03 0.03 0.02 0.02 0.02 0.03 0.03 0.02 0.02 0.03 0.03 0.02 0.03 0.03 0.03 0.04 0.07
0.02 0.02 0.03 0.03 0.02 0.02 0.01 0.02 0.02 0.04 0.05 0.05 0.06 0.06 0.05 0.05 0.04 0.04 0.04 0.03 0.03 0.05 0.05 0.04 0.04 0.03 0.03 0.03 0.03 0.03 0.02 0.02 0.02 0.02 0.02 0.02 0.03 0.02 0.02 0.04 0.04 0.04 0.05
0.03 0.03 0.03 0.03 0.03 0.02 0.01 0.02 0.03 0.03 0.04 0.05 0.06 0.06 0.05 0.05 0.05 0.05 0.04 0.04 0.04 0.04 0.04 0.04 0.05 0.05 0.04 0.03 0.03 0.03 0.03 0.02 0.02 0.03 0.02 0.02 0.02 0.02 0.02 0.04 0.05 0.05 0.05
0.04 0.04 0.04 0.04 0.03 0.02 0.02 0.02 0.03 0.04 0.04 0.04 0.04 0.05 0.05 0.05 0.06 0.06 0.06 0.05 0.05 0.04 0.04 0.04 0.04 0.04 0.05 0.04 0.03 0.03 0.03 0.03 0.03 0.03 0.03 0.02 0.02 0.02 0.02 0.03 0.05 0.07 0.07
0.03 0.03 0.04 0.04 0.03 0.02 0.01 0.01 0.02 0.03 0.05 0.05 0.05 0.05 0.05 0.06 0.05 0.06 0.06 0.07 0.07 0.06 0.05 0.05 0.04 0.04 0.04 0.04 0.03 0.04 0.04 0.04 0.03 0.03 0.03 0.02 0.02 0.02 0.03 0.03 0.04 0.06 0.07
0.02 0.02 0.03 0.03 0.03 0.02 0.01 0.01 0.02 0.03 0.04 0.04 0.05 0.05 0.04 0.05 0.06 0.06 0.06 0.06 0.06 0.06 0.06 0.05 0.04 0.04 0.05 0.06 0.05 0.04 0.04 0.04 0.04 0.04 0.04 0.04 0.02 0.02 0.02 0.02 0.04 0.04 0.07
0.01 0.02 0.02 0.02 0.01 0.01 0.01 0.01 0.02 0.03 0.03 0.03 0.04 0.05 0.05 0.05 0.06 0.07 0.06 0.06 0.05 0.05 0.04 0.04 0.05 0.05 0.05 0.06 0.06 0.05 0.05 0.04 0.04 0.04 0.04 0.05 0.04 0.03 0.03 0.03 0.03 0.04 0.05
0.01 0.01 0.01 0.01 0.01 0.01 0.01 0.01 0.02 0.03 0.03 0.03 0.04 0.05 0.06 0.06 0.07 0.07 0.08 0.07 0.06 0.05 0.05 0.05 0.05 0.05 0.05 0.06 0.06 0.05 0.05 0.05 0.04 0.03 0.04 0.04 0.04 0.03 0.04 0.04 0.04 0.04 0.04
0.01 0.01 0.01 0.01 0.01 0.01 0.01 0.02 0.03 0.03 0.04 0.04 0.04 0.05 0.05 0.06 0.08 0.08 0.08 0.07 0.07 0.06 0.06 0.06 0.07 0.07 0.06 0.06 0.06 0.06 0.05 0.05 0.05 0.04 0.04 0.04 0.04 0.04 0.04 0.04 0.04 0.04 0.05
0.02 0.02 0.02 0.01 0.01 0.01 0.01 0.02 0.02 0.03 0.04 0.04 0.04 0.05 0.06 0.07 0.08 0.08 0.09 0.08 0.07 0.06 0.05 0.06 0.07 0.08 0.07 0.06 0.06 0.06 0.06 0.06 0.05 0.05 0.04 0.04 0.04 0.04 0.04 0.04 0.05 0.05 0.05
0.03 0.02 0.02 0.02 0.02 0.02 0.02 0.02 0.02 0.03 0.04 0.05 0.05 0.06 0.07 0.08 0.08 0.07 0.08 0.09 0.09 0.07 0.05 0.05 0.06 0.07 0.07 0.06 0.05 0.05 0.05 0.05 0.05 0.05 0.05 0.04 0.04 0.04 0.04 0.04 0.05 0.05 0.06
0.03 0.02 0.02 0.02 0.03 0.03 0.02 0.02 0.03 0.03 0.04 0.05 0.06 0.06 0.07 0.08 0.08 0.07 0.08 0.09 0.10 0.09 0.06 0.06 0.05 0.06 0.06 0.06 0.05 0.05 0.05 0.05 0.05 0.04 0.04 0.03 0.03 0.04 0.04 0.04 0.04 0.04 0.05
0.03 0.03 0.03 0.03 0.03 0.03 0.03 0.03 0.04 0.04 0.05 0.05 0.06 0.07 0.06 0.06 0.06 0.07 0.06 0.07 0.08 0.08 0.08 0.07 0.05 0.05 0.05 0.05 0.04 0.04 0.04 0.03 0.03 0.03 0.03 0.03 0.03 0.03 0.03 0.03 0.03 0.03 0.04
0.03 0.03 0.03 0.03 0.04 0.04 0.03 0.03 0.04 0.04 0.04 0.05 0.06 0.07 0.06 0.05 0.05 0.06 0.06 0.06 0.06 0.06 0.06 0.06 0.05 0.05 0.04 0.04 0.04 0.03 0.03 0.03 0.03 0.03 0.03 0.03 0.02 0.02 0.02 0.02 0.03 0.03 0.04
0.03 0.03 0.03 0.03 0.03 0.04 0.04 0.04 0.04 0.04 0.05 0.06 0.06 0.07 0.07 0.06 0.05 0.06 0.06 0.06 0.06 0.06 0.05 0.04 0.04 0.04 0.03 0.03 0.02 0.02 0.02 0.02 0.02 0.02 0.02 0.02 0.02 0.02 0.03 0.03 0.03 0.03 0.03
0.03 0.03 0.03 0.03 0.03 0.03 0.03 0.05 0.06 0.07 0.07 0.07 0.07 0.07 0.07 0.07 0.05 0.05 0.05 0.06 0.07 0.06 0.05 0.04 0.04 0.03 0.03 0.02 0.02 0.02 0.02 0.02 0.02 0.02 0.02 0.02 0.02 0.02 0.03 0.02 0.02 0.02 0.02
0.04 0.04 0.03 0.03 0.03 0.03 0.03 0.04 0.05 0.07 0.09 0.09 0.08 0.07 0.07 0.06 0.05 0.04 0.04 0.04 0.04 0.05 0.05 0.04 0.03 0.03 0.03 0.03 0.02 0.02 0.02 0.02 0.02 0.02 0.02 0.02 0.02 0.02 0.02 0.02 0.02 0.01 0.01
0.04 0.04 0.03 0.03 0.03 0.03 0.03 0.03 0.03 0.04 0.06 0.08 0.08 0.06 0.05 0.05 0.05 0.05 0.04 0.04 0.03 0.03 0.04 0.04 0.04 0.03 0.03 0.03 0.03 0.03 0.03 0.03 0.03 0.03 0.02 0.02 0.02 0.02 0.02 0.02 0.02 0.02 0.02
0.04 0.03 0.03 0.03 0.02 0.02 0.03 0.03 0.03 0.03 0.04 0.05 0.05 0.05 0.05 0.04 0.04 0.04 0.04 0.04 0.04 0.04 0.04 0.04 0.04 0.04 0.04 0.03 0.04 0.04 0.03 0.03 0.03 0.02 0.02 0.02 0.02 0.02 0.02 0.02 0.02 0.02 0.02
0.04 0.04 0.04 0.03 0.03 0.03 0.03 0.03 0.03 0.03 0.04 0.04 0.04 0.04 0.04 0.04 0.04 0.04 0.04 0.04 0.04 0.04 0.04 0.04 0.04 0.04 0.04 0.04 0.04 0.04 0.04 0.03 0.03 0.02 0.02 0.02 0.02 0.02 0.02 0.02 0.02 0.02 0.02
0.03 0.03 0.04 0.03 0.03 0.03 0.03 0.03 0.03 0.03 0.04 0.04 0.04 0.04 0.04 0.04 0.03 0.04 0.04 0.04 0.05 0.06 0.06 0.05 0.05 0.05 0.04 0.04 0.04 0.04 0.04 0.03 0.02 0.02 0.02 0.02 0.02 0.02 0.02 0.02 0.03 0.02 0.02
0.03 0.03 0.03 0.03 0.03 0.03 0.03 0.03 0.03 0.03 0.04 0.04 0.04 0.04 0.03 0.03 0.03 0.03 0.04 0.04 0.05 0.06 0.06 0.06 0.06 0.06 0.05 0.04 0.04 0.03 0.03 0.03 0.03 0.02 0.02 0.02 0.02 0.02 0.02 0.02 0.02 0.03 0.03
0.03 0.03 0.02 0.02 0.02 0.03 0.03 0.03 0.03 0.03 0.03 0.03 0.03 0.04 0.03 0.03 0.03 0.04 0.04 0.05 0.05 0.05 0.05 0.06 0.06 0.06 0.06 0.05 0.05 0.04 0.04 0.03 0.03 0.03 0.02 0.02 0.02 0.02 0.02 0.02 0.02 0.03 0.03
0.03 0.03 0.02 0.02 0.02 0.02 0.02 0.02 0.03 0.03 0.03 0.03 0.03 0.04 0.03 0.03 0.04 0.04 0.04 0.04 0.04 0.04 0.04 0.05 0.05 0.06 0.06 0.05 0.05 0.06 0.05 0.03 0.03 0.02 0.02 0.02 0.02 0.02 0.02 0.02 0.03 0.03 0.04
0.02 0.02 0.02 0.02 0.02 0.02 0.02 0.02 0.02 0.02 0.02 0.03 0.03 0.03 0.03 0.03 0.03 0.03 0.03 0.03 0.03 0.03 0.04 0.04 0.04 0.04 0.05 0.05 0.05 0.05 0.06 0.06 0.04 0.03 0.02 0.02 0.02 0.02 0.02 0.03 0.03 0.04 0.04
0.01 0.01 0.02 0.02 0.02 0.02 0.02 0.02 0.02 0.02 0.02 0.02 0.03 0.03 0.03 0.03 0.03 0.03 0.03 0.03 0.03 0.03 0.03 0.04 0.03 0.03 0.03 0.03 0.04 0.05 0.05 0.05 0.05 0.04 0.03 0.02 0.02 0.02 0.02 0.03 0.03 0.04 0.04
MSLP
1007.48 1007.60 1007.70 1007.77 1007.84 1007.95 1008.11 1008.34 1008.62 1008.93 1009.25 1009.55 1009.81 1010.00 1010.15 1010.26 1010.38 1010.53 1010.75 1011.05 1011.43 1011.87 1012.33 1012.78 1013.16 1013.44 1013.60 1013.62 1013.50 1013.28 1012.97 1012.61 1012.22 1011.82 1011.42 1011.05 1010.69 1010.35 1010.01 1009.67 1009.32 1008.95 1008.53
1007.45 1007.52 1007.55 1007.56 1007.59 1007.65 1007.77 1007.96 1008.20 1008.49 1008.79 1009.06 1009.30 1009.48 1009.60 1009.70 1009.79 1009.92 1010.10 1010.37 1010.71 1011.12 1011.57 1012.00 1012.39 1012.70 1012.89 1012.95 1012.89 1012.72 1012.45 1012.13 1011.76 1011.37 1010.98 1010.59 1010.22 1009.85 1009.47 1009.09 1008.69 1008.26 1007.78
1007.52 1007.52 1007.49 1007.45 1007.42 1007.43 1007.50 1007.64 1007.84 1008.09 1008.35 1008.61 1008.83 1009.00 1009.13 1009.23 1009.32 1009.43 1009.60 1009.83 1010.13 1010.50 1010.89 1011.29 1011.65 1011.93 1012.13 1012.20 1012.17 1012.04 1011.82 1011.54 1011.22 1010.87 1010.50 1010.13 1009.76 1009.37 1008.98 1008.56 1008.11 1007.62 1007.08
1007.74 1007.69 1007.61 1007.51 1007.42 1007.37 1007.38 1007.46 1007.60 1007.79 1008.02 1008.24 1008.45 1008.63 1008.77 1008.88 1008.98 1009.09 1009.25 1009.45 1009.71 1010.01 1010.34 1010.67 1010.96 1011.20 1011.36 1011.43 1011.40 1011.29 1011.12 1010.88 1010.61 1010.31 1009.99 1009.66 1009.30 1008.93 1008.52 1008.08 1007.59 1007.05 1006.45
1008.17 1008.08 1007.94 1007.79 1007.64 1007.53 1007.47 1007.47 1007.53 1007.66 1007.83 1008.02 1008.20 1008.37 1008.52 1008.65 1008.77 1008.89 1009.03 1009.21 1009.42 1009.65 1009.90 1010.14 1010.35 1010.51 1010.61 1010.64 1010.60 1010.51 1010.36 1010.17 1009.96 1009.71 1009.45 1009.16 1008.85 1008.49 1008.09 1007.64 1007.13 1006.55 1005.91
1008.80 1008.67 1008.49 1008.29 1008.09 1007.91 1007.77 1007.69 1007.67 1007.72 1007.81 1007.95 1008.10 1008.25 1008.39 1008.52 1008.65 1008.77 1008.90 1009.04 1009.20 1009.36 1009.52 1009.66 1009.77 1009.85 1009.88 1009.86 1009.80 1009.70 1009.57 1009.43 1009.26 1009.08 1008.87 1008.64 1008.36 1008.04 1007.66 1007.21 1006.68 1006.08 1005.40
1009.55 1009.39 1009.19 1008.95 1008.70 1008.45 1008.25 1008.09 1007.99 1007.95 1007.96 1008.02 1008.12 1008.23 1008.34 1008.46 1008.57 1008.68 1008.79 1008.89 1008.98 1009.07 1009.14 1009.19 1009.21 1009.20 1009.16 1009.09 1009.00 1008.90 1008.79 1008.67 1008.55 1008.41 1008.25 1008.06 1007.83 1007.53 1007.16 1006.72 1006.19 1005.57 1004.88
1010.33 1010.15 1009.92 1009.66 1009.38 1009.09 1008.83 1008.61 1008.43 1008.31 1008.24 1008.22 1008.24 1008.28 1008.35 1008.42 1008.49 1008.56 1008.63 1008.68 1008.71 1008.73 1008.72 1008.69 1008.64 1008.56 1008.47 1008.36 1008.25 1008.14 1008.04 1007.94 1007.84 1007.74 1007.60 1007.43 1007.21 1006.93 1006.56 1006.11 1005.58 1004.96 1004.25
1011.03 1010.84 1010.60 1010.32 1010.03 1009.73 1009.43 1009.16 1008.93 1008.73 1008.59 1008.48 1008.42 1008.38 1008.37 1008.37 1008.38 1008.39 1008.40 1008.39 1008.36 1008.32 1008.26 1008.17 1008.07 1007.95 1007.82 1007.70 1007.58 1007.47 1007.38 1007.28 1007.19 1007.08 1006.95 1006.77 1006.53 1006.22 1005.84 1005.37 1004.82 1004.19 1003.48
1011.59 1011.38 1011.14 1010.87 1010.58 1010.28 1009.97 1009.68 1009.41 1009.17 1008.95 1008.77 1008.62 1008.50 1008.40 1008.32 1008.24 1008.18 1008.11 1008.04 1007.96 1007.87 1007.76 1007.65 1007.52 1007.40 1007.27 1007.15 1007.03 1006.93 1006.83 1006.72 1006.61 1006.47 1006.30 1006.08 1005.79 1005.43 1004.99 1004.48 1003.90 1003.26 1002.55
1011.97 1011.75 1011.52 1011.26 1010.99 1010.70 1010.42 1010.13 1009.84 1009.57 1009.31 1009.06 1008.83 1008.62 1008.43 1008.26 1008.10 1007.95 1007.81 1007.68 1007.55 1007.43 1007.31 1007.18 1007.06 1006.95 1006.84 1006.73 1006.63 1006.53 1006.42 1006.29 1006.13 1005.94 1005.70 1005.39 1005.02 1004.58 1004.08 1003.51 1002.88 1002.22 1001.52
1012.23 1011.99 1011.76 1011.52 1011.27 1011.01 1010.75 1010.48 1010.20 1009.91 1009.62 1009.33 1009.04 1008.76 1008.48 1008.22 1007.98 1007.75 1007.55 1007.36 1007.20 1007.06 1006.93 1006.82 1006.72 1006.63 1006.55 1006.46 1006.37 1006.27 1006.14 1005.97 1005.76 1005.49 1005.15 1004.75 1004.28 1003.74 1003.15 1002.52 1001.85 1001.17 1000.49
1012.40 1012.16 1011.92 1011.69 1011.46 1011.23 1010.99 1010.75 1010.48 1010.20 1009.90 1009.57 1009.24 1008.90 1008.56 1008.23 1007.92 1007.63 1007.37 1007.15 1006.96 1006.80 1006.68 1006.59 1006.51 1006.45 1006.39 1006.33 1006.24 1006.13 1005.97 1005.75 1005.47 1005.11 1004.68 1004.17 1003.60 1002.97 1002.31 1001.62 1000.92 1000.24 999.58
1012.55 1012.29 1012.04 1011.82 1011.60 1011.38 1011.17 1010.94 1010.69 1010.41 1010.11 1009.77 1009.41 1009.04 1008.65 1008.28 1007.92 1007.59 1007.30 1007.05 1006.84 1006.68 1006.57 1006.48 1006.43 1006.38 1006.34 1006.28 1006.19 1006.06 1005.86 1005.59 1005.23 1004.80 1004.28 1003.69 1003.04 1002.35 1001.63 1000.91 1000.21 999.54 998.92
1012.70 1012.43 1012.17 1011.92 1011.70 1011.49 1011.28 1011.06 1010.81 1010.54 1010.24 1009.90 1009.54 1009.15 1008.75 1008.35 1007.98 1007.63 1007.31 1007.05 1006.84 1006.68 1006.56 1006.48 1006.43 1006.39 1006.34 1006.28 1006.16 1006.00 1005.76 1005.44 1005.03 1004.54 1003.97 1003.33 1002.64 1001.92 1001.19 1000.48 999.80 999.17 998.61
1012.84 1012.55 1012.27 1012.00 1011.76 1011.53 1011.30 1011.08 1010.83 1010.56 1010.26 1009.93 1009.57 1009.19 1008.80 1008.41 1008.04 1007.69 1007.38 1007.12 1006.91 1006.74 1006.62 1006.54 1006.47 1006.42 1006.35 1006.25 1006.11 1005.91 1005.64 1005.29 1004.85 1004.34 1003.75 1003.11 1002.42 1001.72 1001.03 1000.36 999.74 999.18 998.69
1012.91 1012.60 1012.30 1012.00 1011.73 1011.47 1011.22 1010.97 1010.71 1010.44 1010.14 1009.83 1009.49 1009.13 1008.77 1008.41 1008.06 1007.74 1007.45 1007.20 1006.99 1006.83 1006.70 1006.60 1006.51 1006.43 1006.33 1006.20 1006.03 1005.80 1005.51 1005.14 1004.70 1004.20 1003.63 1003.03 1002.40 1001.76 1001.14 1000.55 1000.01 999.53 999.11
1012.84 1012.52 1012.19 1011.88 1011.57 1011.28 1010.99 1010.72 1010.44 1010.16 1009.87 1009.57 1009.26 1008.94 1008.62 1008.31 1008.00 1007.72 1007.47 1007.24 1007.05 1006.88 1006.75 1006.63 1006.52 1006.40 1006.27 1006.11 1005.92 1005.67 1005.37 1005.01 1004.60 1004.13 1003.62 1003.09 1002.54 1001.99 1001.47 1000.97 1000.52 1000.12 999.77
1012.57 1012.25 1011.91 1011.58 1011.24 1010.92 1010.61 1010.32 1010.02 1009.74 1009.46 1009.18 1008.90 1008.62 1008.35 1008.09 1007.84 1007.61 1007.40 1007.21 1007.04 1006.88 1006.75 1006.61 1006.49 1006.35 1006.20 1006.02 1005.81 1005.56 1005.28 1004.94 1004.57 1004.16 1003.73 1003.28 1002.82 1002.37 1001.94 1001.53 1001.16 1000.82 1000.52
1012.11 1011.79 1011.46 1011.11 1010.77 1010.43 1010.10 1009.79 1009.49 1009.20 1008.93 1008.67 1008.43 1008.20 1007.98 1007.78 1007.59 1007.41 1007.25 1007.09 1006.95 1006.82 1006.69 1006.56 1006.43 1006.29 1006.13 1005.95 1005.75 1005.52 1005.26 1004.96 1004.64 1004.30 1003.93 1003.56 1003.19 1002.82 1002.46 1002.12 1001.81 1001.51 1001.23
1011.48 1011.18 1010.86 1010.52 1010.18 1009.84 1009.50 1009.18 1008.88 1008.60 1008.35 1008.11 1007.90 1007.71 1007.54 1007.39 1007.26 1007.13 1007.02 1006.91 1006.80 1006.70 1006.59 1006.48 1006.37 1006.24 1006.10 1005.94 1005.76 1005.56 1005.33 1005.08 1004.81 1004.52 1004.22 1003.90 1003.58 1003.26 1002.95 1002.64 1002.35 1002.06 1001.77
1010.78 1010.50 1010.20 1009.88 1009.55 1009.22 1008.89 1008.57 1008.28 1008.01 1007.76 1007.55 1007.37 1007.21 1007.08 1006.98 1006.88 1006.80 1006.73 1006.67 1006.60 1006.54 1006.47 1006.39 1006.31 1006.21 1006.11 1005.98 1005.84 1005.68 1005.50 1005.29 1005.06 1004.81 1004.54 1004.25 1003.95 1003.65 1003.34 1003.03 1002.71 1002.40 1002.08
1010.08 1009.83 1009.55 1009.26 1008.95 1008.63 1008.32 1008.01 1007.73 1007.47 1007.24 1007.04 1006.88 1006.75 1006.65 1006.57 1006.51 1006.46 1006.43 1006.40 1006.37 1006.35 1006.32 1006.29 1006.25 1006.20 1006.14 1006.07 1005.97 1005.86 1005.72 1005.54 1005.34 1005.11 1004.85 1004.56 1004.26 1003.93 1003.59 1003.24 1002.89 1002.52 1002.16
1009.46 1009.23 1008.98 1008.71 1008.42 1008.12 1007.82 1007.52 1007.25 1007.00 1006.78 1006.60 1006.45 1006.34 1006.25 1006.19 1006.15 1006.13 1006.12 1006.13 1006.13 1006.15 1006.16 1006.18 1006.19 1006.19 1006.19 1006.16 1006.12 1006.05 1005.94 1005.79 1005.61 1005.38 1005.12 1004.81 1004.47 1004.11 1003.72 1003.32 1002.91 1002.50 1002.07
1008.95 1008.73 1008.50 1008.24 1007.96 1007.67 1007.38 1007.10 1006.84 1006.60 1006.39 1006.22 1006.08 1005.97 1005.90 1005.85 1005.83 1005.82 1005.84 1005.86 1005.90 1005.95 1006.00 1006.06 1006.12 1006.17 1006.22 1006.24 1006.24 1006.20 1006.12 1006.00 1005.82 1005.59 1005.31 1004.98 1004.60 1004.20 1003.76 1003.32 1002.85 1002.39 1001.93
1008.52 1008.31 1008.07 1007.81 1007.54 1007.25 1006.97 1006.70 1006.45 1006.22 1006.02 1005.86 1005.73 1005.64 1005.58 1005.54 1005.53 1005.54 1005.57 1005.62 1005.68 1005.76 1005.84 1005.94 1006.03 1006.13 1006.21 1006.27 1006.30 1006.30 1006.24 1006.12 1005.95 1005.71 1005.42 1005.07 1004.67 1004.23 1003.76 1003.28 1002.79 1002.29 1001.80
Thickness
5467 5468 5469 5470 5471 5471 5472 5474 5475 5477 5478 5479 5480 5480 5480 5480 5480 5478 5478 5478 5477 5477 5478 5478 5479 5479 5479 5479 5480 5481 5483 5484 5486 5491 5490 5490 5491 5493 5496 5498 5501 5502 5505
5459 5460 5461 5462 5462 5463 5465 5466 5467 5468 5469 5470 5471 5472 5472 5471 5471 5470 5470 5469 5469 5469 5469 5470 5470 5470 5471 5471 5471 5473 5474 5474 5475 5479 5481 5480 5482 5483 5486 5489 5490 5492 5494
5450 5451 5452 5453 5455 5456 5457 5458 5458 5459 5460 5461 5462 5464 5464 5463 5463 5462 5462 5462 5461 5461 5461 5462 5462 5462 5463 5464 5464 5464 5465 5466 5467 5469 5471 5472 5473 5474 5476 5479 5480 5481 5483
5442 5443 5445 5446 5446 5447 5448 5449 5449 5450 5452 5453 5454 5455 5455 5455 5454 5454 5453 5453 5453 5452 5452 5453 5453 5453 5454 5454 5455 5455 5456 5457 5458 5460 5462 5463 5464 5465 5466 5469 5470 5471 5473
5435 5436 5436 5436 5437 5438 5439 5440 5441 5442 5443 5444 5445 5446 5446 5446 5446 5446 5445 5444 5444 5444 5444 5444 5445 5444 5444 5444 5445 5445 5446 5448 5449 5451 5453 5455 5456 5457 5458 5459 5460 5462 5464
5427 5428 5428 5428 5428 5430 5431 5432 5433 5434 5435 5435 5436 5437 5438 5439 5438 5437 5436 5435 5435 5435 5434 5434 5435 5435 5435 5435 5435 5436 5437 5439 5441 5442 5444 5446 5448 5448 5449 5449 5450 5453 5456
5419 5419 5419 5420 5420 5421 5422 5423 5424 5425 5426 5427 5428 5428 5430 5431 5430 5429 5427 5427 5427 5426 5426 5426 5426 5427 5427 5427 5427 5428 5429 5430 5432 5434 5436 5438 5439 5439 5440 5441 5442 5443 5445
5410 5410 5410 5410 5411 5412 5413 5414 5415 5415 5416 5417 5418 5419 5421 5422 5422 5421 5419 5418 5418 5417 5417 5417 5418 5418 5419 5419 5420 5422 5423 5424 5425 5426 5428 5430 5430 5430 5431 5433 5434 5434 5435
5401 5401 5401 5401 5402 5403 5404 5404 5404 5405 5407 5407 5408 5410 5412 5413 5413 5412 5411 5411 5410 5409 5408 5409 5409 5411 5412 5412 5414 5416 5417 5418 5418 5418 5419 5420 5421 5422 5422 5423 5425 5426 5429
5393 5392 5391 5391 5392 5393 5393 5394 5395 5396 5397 5398 5400 5401 5402 5403 5403 5403 5403 5403 5403 5402 5402 5402 5403 5404 5405 5406 5408 5409 5411 5411 5411 5411 5411 5412 5413 5414 5414 5415 5416 5418 5420
5384 5383 5383 5382 5382 5383 5384 5385 5386 5387 5388 5390 5391 5393 5393 5394 5394 5394 5394 5396 5396 5396 5396 5397 5397 5397 5399 5400 5401 5403 5404 5403 5403 5403 5404 5405 5405 5406 5407 5408 5409 5410 5412
5375 5375 5375 5374 5374 5375 5376 5377 5378 5378 5380 5381 5383 5384 5385 5385 5386 5386 5387 5388 5389 5389 5390 5391 5391 5391 5392 5393 5394 5395 5394 5395 5395 5395 5396 5397 5397 5398 5399 5400 5402 5403 5405
5368 5368 5367 5367 5367 5367 5368 5370 5370 5371 5372 5374 5375 5377 5378 5379 5379 5380 5380 5381 5382 5383 5384 5385 5385 5385 5385 5386 5387 5387 5387 5388 5388 5389 5389 5390 5390 5391 5392 5393 5395 5397 5398
5361 5360 5360 5360 5360 5360 5361 5362 5363 5364 5365 5367 5368 5370 5371 5373 5373 5374 5375 5376 5376 5377 5378 5379 5379 5379 5379 5379 5379 5380 5380 5381 5381 5382 5383 5383 5383 5385 5386 5388 5390 5391 5393
5354 5353 5353 5353 5354 5354 5354 5355 5356 5357 5357 5359 5361 5363 5365 5367 5367 5368 5369 5371 5372 5373 5373 5373 5373 5373 5373 5374 5373 5373 5374 5375 5375 5376 5377 5379 5379 5380 5381 5382 5384 5385 5387
5348 5347 5347 5347 5347 5348 5348 5349 5350 5351 5352 5353 5355 5357 5360 5361 5362 5363 5364 5365 5366 5366 5368 5368 5368 5368 5367 5367 5368 5368 5368 5369 5370 5371 5372 5374 5375 5375 5376 5377 5378 5379 5381
5341 5341 5341 5341 5341 5342 5343 5345 5347 5347 5347 5349 5351 5353 5355 5356 5358 5358 5359 5360 5360 5361 5362 5362 5362 5361 5361 5361 5362 5362 5363 5364 5365 5366 5367 5369 5370 5371 5371 5372 5373 5374 5376
5336 5335 5335 5336 5337 5338 5339 5340 5342 5343 5344 5346 5346 5348 5349 5351 5352 5353 5354 5355 5356 5356 5356 5356 5356 5356 5356 5356 5357 5357 5358 5359 5361 5362 5363 5365 5365 5366 5367 5368 5369 5370 5371
5331 5331 5331 5331 5332 5333 5334 5335 5337 5338 5339 5340 5342 5343 5344 5345 5347 5348 5349 5350 5351 5351 5351 5351 5351 5351 5351 5352 5353 5354 5355 5356 5358 5359 5360 5361 5362 5362 5363 5364 5365 5365 5366
5326 5325 5325 5326 5327 5328 5329 5330 5331 5332 5334 5335 5337 5338 5338 5340 5342 5343 5344 5345 5345 5345 5346 5347 5347 5347 5348 5349 5350 5351 5353 5354 5355 5357 5358 5358 5359 5360 5360 5361 5362 5362 5363
5321 5320 5321 5322 5323 5324 5324 5325 5326 5327 5328 5330 5331 5331 5333 5334 5336 5337 5338 5339 5339 5340 5341 5342 5342 5343 5345 5346 5347 5349 5350 5352 5353 5354 5355 5355 5356 5356 5357 5358 5359 5360 5361
5316 5316 5316 5317 5318 5319 5320 5321 5321 5323 5324 5325 5326 5327 5328 5329 5330 5332 5333 5333 5334 5335 5336 5337 5338 5339 5341 5343 5345 5346 5348 5350 5351 5352 5353 5353 5354 5354 5355 5356 5357 5358 5359
5311 5311 5311 5312 5313 5314 5315 5316 5317 5318 5319 5320 5321 5322 5324 5325 5325 5326 5328 5328 5330 5331 5332 5333 5334 5336 5338 5339 5341 5344 5346 5347 5349 5350 5350 5351 5352 5353 5353 5354 5355 5357 5358
5308 5308 5308 5308 5309 5310 5311 5312 5313 5314 5315 5316 5317 5318 5318 5319 5320 5321 5323 5324 5326 5327 5328 5330 5331 5333 5335 5337 5339 5341 5343 5345 5346 5347 5348 5350 5350 5351 5352 5353 5354 5355 5357
5304 5304 5304 5304 5305 5306 5307 5307 5308 5309 5310 5311 5312 5313 5314 5315 5316 5317 5318 5320 5322 5324 5326 5327 5329 5331 5334 5336 5338 5340 5342 5344 5345 5346 5347 5348 5349 5350 5351 5352 5354 5355 5356
5301 5301 5301 5301 5301 5302 5302 5303 5304 5305 5306 5307 5307 5309 5310 5311 5312 5314 5316 5318 5319 5321 5323 5326 5328 5330 5332 5335 5337 5339 5341 5343 5345 5346 5347 5348 5349 5350 5351 5352 5353 5355 5356